This demonstration page uses our WeatherBlox Daily Observations layout. Learn more.

40.92945, -100.16068

Hourly Observations for May 15, 2018

Temp ( °F °C ) Dew Point ( °F °C ) Humidity (%) Winds ( mph kmh ) Pressure ( in mb ) Visibility ( mi km ) Precip ( " mm )
12:15 am 00:15 Clear 58 14.6 56 13.5 93 93 NNW 5 7 30 1016 10 16.0934 0 0
12:35 am 00:35 Clear 58 14.4 56 13.2 93 93 NNW 7 11 30 1016 10 16.0934 0 0
12:55 am 00:55 Clear 58 14.4 56 13.4 94 94 NW 10 17 30 1016 10 16.0934 0 0
1:15 am 01:15 Partly Cloudy 59 14.8 56 13.4 91 91 NW 10 17 30 1016 10 16.0934 0 0
1:35 am 01:35 Mostly Cloudy 59 15.1 56 13.2 89 89 NE 9 15 29.97 1015 10 16.0934 0 0
1:55 am 01:55 Partly Cloudy 58 14.3 55 12.7 90 90 NNW 6 9 30 1016 10 16.0934 0 0
2:15 am 02:15 Clear 57 13.8 55 12.6 93 93 NNW 5 7 30 1016 10 16.0934 0 0
2:35 am 02:35 Clear 56 13.3 54 12.3 94 94 Calm 30.03 1017 10 16.0934 0 0
2:55 am 02:55 Clear 55 12.8 53 11.5 92 92 NW 6 9 30.03 1017 10 16.0934 0 0
3:15 am 03:15 Clear 54 12.1 52 10.9 92 92 Calm 30.03 1017 10 16.0934 0 0
3:35 am 03:35 Clear 55 12.6 53 11.9 96 96 ENE 3 6 30.03 1017 10 16.0934 0 0
3:55 am 03:55 Clear 54 12 52 11 94 94 NE 5 7 30.03 1017 10 16.0934 0 0
4:15 am 04:15 Clear 53 11.7 51 10.8 94 94 NNW 7 11 30.03 1017 10 16.0934 0 0
4:35 am 04:35 Clear 53 11.5 51 10.8 96 96 NW 5 7 30.03 1017 10 16.0934 0 0
4:55 am 04:55 Clear 53 11.5 52 10.9 96 96 WNW 8 13 30.03 1017 10 16.0934 0 0
5:15 am 05:15 Clear 53 11.5 51 10.7 95 95 W 8 13 30.03 1017 10 16.0934 0 0
5:35 am 05:35 Clear 53 11.6 51 10.8 95 95 NW 9 15 30.03 1017 10 16.0934 0 0
5:55 am 05:55 Clear 53 11.6 51 10.6 94 94 W 7 11 30.03 1017 10 16.0934 0 0
6:15 am 06:15 Clear 53 11.5 51 10.6 94 94 WNW 7 11 30.03 1017 10 16.0934 0 0
6:35 am 06:35 Sunny 52 11.1 50 10.2 94 94 W 5 7 30.06 1018 10 16.0934 0 0
6:55 am 06:55 Sunny 52 11.1 51 10.4 96 96 WNW 6 9 30.06 1018 10 16.0934 0 0
7:15 am 07:15 Sunny 53 11.8 52 10.9 94 94 WNW 7 11 30.06 1018 10 16.0934 0 0
7:35 am 07:35 Sunny 55 12.5 53 11.4 93 93 WNW 6 9 30.06 1018 10 16.0934 0 0
7:55 am 07:55 Sunny 55 13 53 11.7 92 92 WNW 7 11 30.06 1018 10 16.0934 0 0
8:15 am 08:15 Sunny 57 13.8 54 12.1 90 90 WNW 9 15 30.03 1017 10 16.0934 0 0
8:35 am 08:35 Sunny 58 14.7 55 12.6 87 87 WNW 10 17 30.03 1017 10 16.0934 0 0
8:55 am 08:55 Sunny 60 15.5 55 12.9 85 85 NW 8 13 30.03 1017 10 16.0934 0 0
9:15 am 09:15 Sunny 61 16.3 57 13.8 85 85 NW 6 9 30.03 1017 10 16.0934 0 0
9:35 am 09:35 Sunny 63 17.4 57 14 81 81 NW 5 7 30.03 1017 10 16.0934 0 0
9:55 am 09:55 Sunny 65 18.1 58 14.3 79 79 NW 5 7 30.03 1017 10 16.0934 0 0
10:15 am 10:15 Sunny 66 19 59 15.1 78 78 NW 5 7 30 1016 10 16.0934 0 0
10:35 am 10:35 Sunny 67 19.6 59 15 75 75 NNW 5 7 30 1016 10 16.0934 0 0
10:55 am 10:55 Sunny 69 20.3 58 14.6 70 70 NW 5 7 30 1016 10 16.0934 0 0
11:15 am 11:15 Sunny 70 21 58 14.3 66 66 N 6 9 29.97 1015 10 16.0934 0 0
11:35 am 11:35 Sunny 70 21.3 58 14.4 65 65 WNW 5 7 29.97 1015 10 16.0934 0 0
11:55 am 11:55 Partly Cloudy 71 21.5 57 13.7 61 61 Calm 29.97 1015 10 16.0934 0 0
12:15 pm 12:15 Partly Cloudy 71 21.7 57 14.1 62 62 Calm 29.97 1015 10 16.0934 0 0
12:35 pm 12:35 Mostly Cloudy 71 21.5 57 13.9 62 62 Calm 29.97 1015 10 16.0934 0 0
12:55 pm 12:55 Mostly Cloudy 73 22.6 58 14.6 61 61 Calm 29.97 1015 10 16.0934 0 0
1:15 pm 13:15 Partly Cloudy 73 22.7 58 14.2 59 59 Calm 29.97 1015 10 16.0934 0 0
1:35 pm 13:35 Partly Cloudy 72 22.4 57 14.1 60 60 NE 3 6 29.97 1015 10 16.0934 0 0
1:55 pm 13:55 Partly Cloudy 74 23.1 56 13.2 54 54 Calm 29.97 1015 10 16.0934 0 0
2:15 pm 14:15 Sunny 74 23.5 56 13.2 53 53 Calm 29.94 1014 10 16.0934 0 0
2:35 pm 14:35 Sunny 74 23.4 55 12.6 51 51 Calm 29.94 1014 10 16.0934 0 0
2:55 pm 14:55 Mostly Cloudy 75 23.8 57 14 54 54 ENE 7 11 29.91 1013 10 16.0934 0 0
3:15 pm 15:15 Partly Cloudy 75 23.7 56 13.3 52 52 ENE 3 6 29.91 1013 10 16.0934 0 0
3:35 pm 15:35 Sunny 76 24.2 56 13.4 51 51 ENE 5 7 29.91 1013 10 16.0934 0 0
3:55 pm 15:55 Partly Cloudy 75 24 57 13.8 53 53 E 5 7 29.91 1013 10 16.0934 0 0
4:15 pm 16:15 Partly Cloudy 76 24.5 57 13.8 51 51 SSE 3 6 29.91 1013 10 16.0934 0 0
4:35 pm 16:35 Partly Cloudy 75 24 57 13.8 53 53 ENE 3 6 29.91 1013 10 16.0934 0 0
4:55 pm 16:55 Sunny 74 23.2 56 13.3 54 54 Calm 29.94 1014 10 16.0934 0 0
5:15 pm 17:15 Partly Cloudy 76 24.3 56 13.2 50 50 E 3 6 29.91 1013 10 16.0934 0 0
5:35 pm 17:35 Mostly Cloudy 76 24.5 57 13.7 51 51 ESE 6 9 29.91 1013 10 16.0934 0 0
5:55 pm 17:55 Mostly Cloudy 76 24.7 56 13.6 50 50 ESE 7 11 29.91 1013 10 16.0934 0 0
6:15 pm 18:15 Mostly Cloudy 76 24.3 55 12.7 48 48 Calm 29.91 1013 10 16.0934 0 0
6:35 pm 18:35 Partly Cloudy 76 24.2 56 13.2 50 50 SSE 6 9 29.88 1012 10 16.0934 0 0
6:55 pm 18:55 Sunny 75 24.1 55 12.7 49 49 SE 6 9 29.88 1012 10 16.0934 0 0
7:15 pm 19:15 Sunny 74 23.6 55 13 52 52 ESE 7 11 29.88 1012 10 16.0934 0 0
7:35 pm 19:35 Sunny 74 23.2 55 12.5 51 51 ESE 6 9 29.91 1013 10 16.0934 0 0
7:55 pm 19:55 Sunny 72 22.2 56 13.3 57 57 ESE 7 11 29.91 1013 10 16.0934 0 0
8:15 pm 20:15 Sunny 71 21.5 55 12.6 57 57 E 6 9 29.91 1013 10 16.0934 0 0
8:35 pm 20:35 Sunny 69 20.5 56 13.2 63 63 E 5 7 29.91 1013 10 16.0934 0 0
8:55 pm 20:55 Clear 66 18.8 56 13.5 71 71 E 7 11 29.94 1014 10 16.0934 0 0
9:15 pm 21:15 Clear 66 18.8 56 13.3 71 71 ESE 6 9 29.94 1014 10 16.0934 0 0
9:35 pm 21:35 Clear 66 19 57 13.8 72 72 ESE 6 9 29.94 1014 10 16.0934 0 0
9:55 pm 21:55 Clear 65 18.4 57 13.8 75 75 ESE 7 11 29.94 1014 10 16.0934 0 0
10:15 pm 22:15 Clear 65 18.6 58 14.2 76 76 ESE 6 9 29.97 1015 10 16.0934 0 0
10:35 pm 22:35 Clear 65 18.1 58 14.2 78 78 SE 6 9 29.97 1015 10 16.0934 0 0
10:55 pm 22:55 Clear 64 17.8 58 14.4 81 81 SE 5 7 29.97 1015 10 16.0934 0 0
11:15 pm 23:15 Clear 64 17.5 58 14.4 82 82 SE 5 7 29.97 1015 10 16.0934 0 0
11:35 pm 23:35 Clear 63 17.2 57 13.9 81 81 SE 6 9 29.97 1015 10 16.0934 0 0
11:55 pm 23:55 Clear 64 17.5 57 13.7 79 79 SE 6 9 29.97 1015 10 16.0934 0 0

Powered by AerisWeather